Flag Weather past 2 weeks in Sidon, Lebanon

Now
68 °F

Thundershowers. Passing clouds.


Feels Like: 68 °F
Forecast: 58 / 66 °F
Wind: 13 mph from Southwest

Location: Beirut Airport

Current Time: Nov 21, 2014 at 8:09:34 PM

Latest Report: Nov 21, 2014 at 7:00 PM


Visibility: 5 mi

Pressure: 29.92 "Hg

Humidity: 56%

Dew point: 52 °F

Location of SidonLocation

Historic Weather in Sidon — Graph

°F

Sidon temperature yesterday

Maximum temperature yesterday: 77 °F (at 3:00 PM)
Minimum temperature yesterday: 64 °F (at 6:00 AM)
Average temperature yesterday: 70 °F

Past Weeks' High & Low Weather Summary

 TemperatureHumidityPressure
High79 °F (Nov 9, 3:00 PM)88% (Nov 15, 5:00 PM)30.27 "Hg (Nov 15, 5:00 PM)
Low61 °F (Nov 9, 4:00 AM)22% (Nov 8, 9:00 AM)29.86 "Hg (Nov 16, 6:00 AM)
Average68 °F54%30.05 "Hg
* Reported Nov 6 6:00 PM — Nov 21 6:00 PM, Sidon, Weather by CustomWeather, © 2014

Note: Actual official high and low records may vary slightly from our data, if they occured in-between our weather recording intervals... More about our weather records

Advertising

Sidon weather history for previous 24 hours

 ConditionsComfort  
Time TempWeatherWind HumidityBarometerVisibility
6:00 PM
Nov 21
68 °FPassing clouds.17 mph53%29.92 "Hg4 mi
5:00 PM68 °FPassing clouds.16 mph60%29.92 "Hg4 mi
4:00 PM68 °FPartly sunny.14 mph69%29.89 "Hg4 mi
3:00 PM68 °FLight rain. Partly sunny.21 mph64%29.89 "Hg3 mi
2:00 PM66 °FRain showers. Partly sunny.25 mph83%29.89 "Hg2 mi
1:00 PM66 °FThunderstorms. Partly sunny.12 mph88%29.89 "Hg2 mi
12:00 PM70 °FPartly sunny.13 mph64%29.89 "Hg4 mi
11:00 AM73 °FScattered clouds.14 mph61%29.92 "Hg4 mi
10:00 AM73 °FScattered clouds.10 mph61%29.92 "Hg4 mi
9:00 AM70 °FScattered clouds.8 mph64%29.95 "Hg4 mi
8:00 AM68 °FScattered clouds.5 mph69%29.95 "Hg4 mi
7:00 AM66 °FScattered clouds.5 mph73%29.95 "Hg5 mi
6:00 AM66 °FPassing clouds.5 mph73%29.95 "HgN/A
5:00 AM66 °FPassing clouds.5 mph68%29.95 "HgN/A
4:00 AM66 °FPassing clouds.5 mph64%29.95 "HgN/A
3:00 AM66 °FPassing clouds.5 mph64%29.95 "HgN/A
2:00 AM66 °FClear.3 mph60%29.95 "Hg10 mi
1:00 AM66 °FClear.6 mph60%29.95 "Hg10 mi
12:00 AM66 °FClear.5 mph60%29.98 "Hg10 mi
11:00 PM
Nov 20
66 °FClear.5 mph56%29.98 "Hg10 mi
10:00 PM66 °FClear.2 mph56%29.98 "Hg10 mi
9:00 PM68 °FPassing clouds.2 mph53%29.98 "HgN/A
8:00 PM70 °FClear.3 mph50%29.98 "Hg10 mi
Weather by CustomWeather, © 2014

See weather overviewHow to use our weather pages